Regional Weather Roundup
Issued by NWS

Home | Current Version | Previous Version | Graphics & Text | Print | Product List | Glossary On
Versions: 1 2 3 4 5 6 7 8 9 10 11 12 13 14 15 16 17 18 19 20 21 22 23 24 25 26 27 28 29 30 31 32 33 34 35 36 37 38 39 40 41 42 43 44 45 46 47 48 49 50
000
ASUS43 KOAX 012310
RWRNE

WEATHER ROUNDUP FOR NEBRASKA
NATIONAL WEATHER SERVICE OMAHA NE
600 PM CDT MON SEP 01 2014

NOTES: SATELLITE DATA IS BEING USED TO AUGMENT CLOUD COVER ABOVE
       12000 FEET.
       "FAIR" INDICATES FEW OR NO CLOUDS BELOW 12,000 FEET WITH NO
       SIGNIFICANT WEATHER AND/OR OBSTRUCTIONS TO VISIBILITY.

  * THESE STATIONS DO NOT REPORT WEATHER SUCH AS RAIN...SNOW OR FOG.

NEZ001>004-019>022-054>056-020000-
NEBRASKA PANHANDLE

CITY           SKY/WX    TMP DP  RH WIND       PRES   REMARKS
SCOTTSBLUFF    MOSUNNY   71  48  43 N17       29.92R
ALLIANCE       MOSUNNY   69  48  47 N22G33    29.92R
CHADRON        PTSUNNY   64  51  62 E9        29.93S
KIMBALL        MOSUNNY   76  35  22 N9        29.95S
SIDNEY         SUNNY     77  42  28 W8        29.95S
$$

NEZ057>060-069>072-079>082-020000-
SOUTHWEST NEBRASKA

CITY           SKY/WX    TMP DP  RH WIND       PRES   REMARKS
NORTH PLATTE   SUNNY     75  53  46 S7        29.91S
IMPERIAL       SUNNY     78  48  34 S6        29.92F
LEXINGTON      PTSUNNY   73  55  53 S3        29.92S
MCCOOK         SUNNY     77  52  41 E6        29.92F
OGALLALA       SUNNY     75  51  41 S9        29.90F
$$

NEZ005>010-023>029-035>040-094-020000-
NORTH CENTRAL NEBRASKA

CITY           SKY/WX    TMP DP  RH WIND       PRES   REMARKS
VALENTINE      CLOUDY    64  53  67 S6        29.91F
AINSWORTH      PTSUNNY   71  49  45 NE3       29.88R
BROKEN BOW     MOSUNNY   76  57  51 S12       29.89S
O`NEILL        SUNNY     78  51  40 CALM      29.87S
ORD            SUNNY     77  55  46 S8        29.87S
THEDFORD       MOSUNNY   80  48  32 S14       29.89S
$$

NEZ041-046>049-061>064-073>077-083>087-020000-
SOUTH CENTRAL NEBRASKA

CITY           SKY/WX    TMP DP  RH WIND       PRES   REMARKS
GRAND ISLAND   PTSUNNY   75  59  57 SW6       29.91F
AURORA         CLOUDY    71  64  78 CALM      29.91R
HASTINGS       PTSUNNY   72  60  66 NW6       29.91S
HEBRON         PTSUNNY   76  55  49 CALM      29.90F
HOLDREGE       MOSUNNY   72  57  58 CALM      29.93S
KEARNEY *      CLOUDY    68  59  73 CALM      29.92S
YORK           CLOUDY    70 N/A N/A CALM      29.89F
$$

NEZ011>018-030>034-042>045-020000-
NORTHEAST NEBRASKA

CITY           SKY/WX    TMP DP  RH WIND       PRES   REMARKS
NORFOLK        MOSUNNY   78  56  46 S6        29.86F
ALBION         MOSUNNY   77  56  48 SW6       29.87S
BLAIR          CLOUDY    74  63  68 S6        29.88R
FREMONT        CLOUDY    76  60  58 CALM      29.88S
TEKAMAH        CLOUDY    76  68  76 CALM      29.85F
WAYNE          MOSUNNY   77  60  56 W6        29.86F
$$

NEZ050>053-065>068-078-088>093-020000-
SOUTHEAST NEBRASKA

CITY           SKY/WX    TMP DP  RH WIND       PRES   REMARKS
LINCOLN        CLOUDY    77  62  59 W9        29.91R
OMAHA EPPLEY   CLOUDY    76  59  55 E3        29.88R
BEATRICE       PTSUNNY   75  62  65 W5        29.91R
FALLS CITY     MOSUNNY   79  65  62 N3        29.88R
NEBRASKA CITY  MOSUNNY   75  61  61 NW3       29.89R
PLATTSMOUTH    PTSUNNY   76  60  58 W3        29.89R
$$

NEZ044-045-051>053-067-020000-
OMAHA AREA

CITY           SKY/WX    TMP DP  RH WIND       PRES   REMARKS
OMAHA EPPLEY   CLOUDY    76  59  55 E3        29.88R
BLAIR          CLOUDY    74  63  68 S6        29.88R
FREMONT        CLOUDY    76  60  58 CALM      29.88S
MILLARD        CLOUDY    76  61  60 CALM      29.88R
OFFUTT AFB     CLOUDY    76  63  64 SE3       29.88R
PLATTSMOUTH    PTSUNNY   76  60  58 W3        29.89R
WAHOO          MOCLDY    73  63  71 S10       29.88S
$$


USA.gov is the U.S. government's official web portal to all federal, state and local government web resources and services.